Fayetteville, AR

5:42 PM CDT on March 25, 2017 (GMT -0500)
Drake

Weather History for KFYV - September, 2013

Change the Weather History Date:

Friday, September 27, 2013

  Actual Average Record
Temperature  
Mean Temperature 69 °F 64 °F  
Max Temperature 84 °F 76 °F 96 °F (1953)
Min Temperature 53 °F 52 °F 35 °F (1985)
Degree Days  
Heating Degree Days 0 4  
Month to date heating degree days 12 36  
Since 1 July heating degree days 12 37  
Cooling Degree Days 4 3  
Month to date cooling degree days 206 151  
Year to date cooling degree days 1335 1276  
Growing Degree Days 18 (Base 50)    
Moisture  
Dew Point 58 °F    
Average Humidity 72    
Maximum Humidity 100    
Minimum Humidity 43    
Precipitation  
Precipitation 0.01 in 0.17 in 1.15 in (1955)
Month to date precipitation 2.83 4.33  
Year to date precipitation 33.90 36.22  
Sea Level Pressure  
Sea Level Pressure 29.97 in    
Wind  
Wind Speed 5 mph (SSE)    
Max Wind Speed 18 mph    
Max Gust Speed 23 mph    
Visibility 9 miles    
Events      
T = Trace of Precipitation, MM = Missing Value Source: NWS Daily Summary

Daily Weather History Graph

Daily Weather History Graph

Search for Another Location

Airport or City:

Trip Planner

Search our weather history database for the weather conditions in past years. The results will help you decide how hot, cold, wet, or windy it might be!

Date:

Astronomy

Sep. 27, 2013 Rise Set
Actual Time 7:08 AM CDT 7:05 PM CDT
Civil Twilight 6:43 AM CDT 7:31 PM CDT
Nautical Twilight 6:13 AM CDT 8:01 PM CDT
Astronomical Twilight 5:43 AM CDT 8:30 PM CDT
Moon 12:15 AM CDT (9/27) 2:34 PM CDT (9/27)
Length of Visible Light 12h 48m
Length of Day
11h 57m
Last Quarter, 45% of the Moon is Illuminated
Sep 27
Last Quarter
Oct 4
New
Oct 11
First Quarter
Oct 18
Full
Oct 26
Last Quarter

Hourly Weather History & Observations

Time (CDT) Temp. Heat Index Dew Point Humidity Pressure Visibility Wind Dir Wind Speed Gust Speed Precip Events Conditions
12:53 AM 60.1 °F - 57.0 °F 90% 29.95 in 10.0 mi Calm Calm - N/A   Clear
1:53 AM 57.0 °F - 55.9 °F 96% 29.96 in 10.0 mi Calm Calm - N/A   Clear
2:53 AM 55.9 °F - 55.9 °F 100% 29.96 in 9.0 mi Calm Calm - N/A   Clear
3:53 AM 55.0 °F - 55.0 °F 100% 29.96 in 7.0 mi Calm Calm - N/A   Clear
4:53 AM 54.0 °F - 54.0 °F 100% 29.97 in 8.0 mi Calm Calm - N/A   Clear
5:26 AM 55.4 °F - 53.6 °F 94% 30.00 in 1.5 mi Calm Calm - N/A   Clear
5:36 AM 53.6 °F - 53.6 °F 100% 30.01 in 4.0 mi Calm Calm - N/A   Clear
5:53 AM 54.0 °F - 53.1 °F 97% 29.98 in 8.0 mi Calm Calm - N/A   Clear
6:53 AM 53.1 °F - 53.1 °F 100% 29.99 in 8.0 mi Calm Calm - N/A   Clear
7:53 AM 55.9 °F - 55.0 °F 97% 30.01 in 8.0 mi Calm Calm - 0.01 in   Clear
8:53 AM 64.9 °F - 61.0 °F 87% 30.02 in 10.0 mi Calm Calm - N/A   Clear
9:53 AM 75.9 °F - 61.0 °F 60% 30.01 in 10.0 mi South 12.7 mph - N/A   Clear
10:53 AM 79.0 °F - 60.1 °F 52% 30.02 in 10.0 mi South 15.0 mph - N/A   Clear
11:53 AM 81.0 °F 81.7 °F 61.0 °F 50% 30.00 in 10.0 mi South 12.7 mph - N/A   Clear
12:53 PM 81.0 °F 81.7 °F 61.0 °F 50% 29.98 in 10.0 mi SSE 9.2 mph 18.4 mph N/A   Clear
1:53 PM 82.0 °F 82.4 °F 60.1 °F 47% 29.96 in 10.0 mi South 11.5 mph - N/A   Clear
2:53 PM 82.9 °F 82.6 °F 57.9 °F 42% 29.94 in 10.0 mi Variable 4.6 mph - N/A   Clear
3:53 PM 82.9 °F 82.6 °F 57.9 °F 42% 29.93 in 10.0 mi South 12.7 mph 17.3 mph N/A   Clear
4:53 PM 82.0 °F 82.1 °F 59.0 °F 45% 29.93 in 10.0 mi SE 9.2 mph - N/A   Partly Cloudy
5:53 PM 81.0 °F 81.1 °F 57.9 °F 45% 29.93 in 10.0 mi SE 5.8 mph - N/A   Clear
6:53 PM 77.0 °F - 60.1 °F 56% 29.93 in 10.0 mi ESE 5.8 mph - N/A   Clear
7:53 PM 73.0 °F - 60.1 °F 64% 29.93 in 10.0 mi South 3.5 mph - N/A   Clear
8:53 PM 68.0 °F - 60.1 °F 76% 29.93 in 10.0 mi Calm Calm - N/A   Clear
9:53 PM 63.0 °F - 59.0 °F 87% 29.94 in 10.0 mi Calm Calm - N/A   Clear
10:53 PM 70.0 °F - 59.0 °F 68% 29.94 in 10.0 mi SSE 4.6 mph - N/A   Clear
11:53 PM 72.0 °F - 59.0 °F 64% 29.93 in 10.0 mi SSE 6.9 mph - N/A   Clear